Regional Weather Roundup
Issued by NWS Tiyan, Guam

Home | Current Version | Previous Version | Text Only | Print | Product List | Glossary On
Versions: 1 2 3 4 5 6 7 8 9 10 11 12 13 14 15 16 17 18 19 20 21 22 23 24 25 26 27
000
ASGM40 PGUM 290512
RWRGUM
WEATHER ROUNDUP FOR THE MARIANAS
NATIONAL WEATHER SERVICE TIYAN GU
300 PM CHST WED MAR 29 2017

GUZ001>004-290600-
MARIANA ISLANDS-

CITY           SKY/WX    TMP DP  RH WIND       PRES   REMARKS
GUAM AIRPORT   MOSUNNY   82  75  78 E18G24    29.93F
ANDERSEN AFB   MOSUNNY   79  73  83 NE22      29.95S
ROTA AIRPORT   CLOUDY    79  77  94 E17G24    29.94S
TINIAN AP      PTSUNNY   82  73  74 NE24      29.93F
SAIPAN AP      PTSUNNY   82  73  74 NE24      29.94F

$$





USA.gov is the U.S. government's official web portal to all federal, state and local government web resources and services.